Ephrata, WA
on Tuesday, November 6, 2012

Tuesday
Previous Day Next Day
Daily Summary
 ActualAverageRecord
Temperature
Mean Temperature °F 41°F  
Max Temperature 58°F 50°F 68°F (2006)
Min Temperature 40°F 32°F 15°F (2003)
Degree Days
Heating Degree Days 16 24  
Month to date heating degree days 89 138  
Since 1 July heating degree days 584 719  
Cooling Degree Days 0 0  
Month to date cooling degree days 0 0  
Year to date cooling degree days 837 772  
Moisture
Dew Point 42°F   
Average Humidity 79    
Maximum Humidity 96    
Minimum Humidity 62    
Precipitation
Precipitation 0.00 in 0.03 in 0.48 in (1980)
Month to date precipitation 0.05 0.18  
Year to date precipitation 5.91 5.73  
Wind
Wind Speed 5 mph   
Max Wind Speed 9 mph   
Max Gust Speed 10 mph   
Visibility 10 miles   
Events     

Key: T is trace of precipitation, MM is missing value
Source: NWS Daily Summary
Time(PST)TemperatureDew PointHumidity Pressure Visibility Wind DirectionWind SpeedGust SpeedPrecipitationEvents Conditions
12:53 AM 42.1°F 39.9°F 92% 30.17 in 10.0 miles North 5.8 mph - N/A   Clear
1:53 AM 41.0°F 39.9°F 96% 30.17 in 10.0 miles NNE 6.9 mph - N/A   Clear
2:53 AM 41.0°F 39.0°F 93% 30.15 in 10.0 miles North 8.1 mph - N/A   Scattered Clouds
3:53 AM 39.9°F 37.9°F 93% 30.14 in 10.0 miles North 6.9 mph - N/A   Clear
4:53 AM 41.0°F 39.0°F 93% 30.13 in 10.0 miles North 4.6 mph - N/A   Mostly Cloudy
5:28 AM 39.2°F 39.2°F 100% 30.11 in 10.0 miles North 4.6 mph - N/A   Partly Cloudy
5:53 AM 42.1°F 37.0°F 82% 30.12 in 10.0 miles North 6.9 mph - N/A   Scattered Clouds
6:02 AM 42.8°F 37.4°F 81% 30.10 in 10.0 miles North 6.9 mph - N/A   Mostly Cloudy
6:10 AM 42.8°F 37.4°F 81% 30.10 in 10.0 miles North 6.9 mph - N/A   Scattered Clouds
6:53 AM 42.1°F 39.9°F 92% 30.11 in 10.0 miles North 5.8 mph - N/A   Partly Cloudy
7:12 AM 42.8°F 41.0°F 93% 30.09 in 10.0 miles North 5.8 mph - N/A   Mostly Cloudy
7:53 AM 46.0°F 42.1°F 86% 30.10 in 10.0 miles North 6.9 mph - N/A   Overcast
8:29 AM 48.2°F 44.6°F 87% 30.07 in 10.0 miles North 5.8 mph - N/A   Scattered Clouds
8:41 AM 48.2°F 44.6°F 87% 30.07 in 10.0 miles NNE 5.8 mph - N/A   Mostly Cloudy
8:53 AM 48.9°F 44.1°F 83% 30.08 in 10.0 miles NNE 4.6 mph - N/A   Mostly Cloudy
9:08 AM 48.2°F 44.6°F 87% 30.06 in 10.0 miles NNE 4.6 mph - N/A   Scattered Clouds
9:53 AM 51.1°F 45.0°F 80% 30.07 in 10.0 miles North 5.8 mph - N/A   Scattered Clouds
10:53 AM 54.0°F 46.0°F 75% 30.04 in 10.0 miles North 6.9 mph - N/A   Clear
11:53 AM 57.0°F 46.0°F 67% 30.00 in 10.0 miles Variable 4.6 mph - N/A   Clear
12:53 PM 57.0°F 46.0°F 67% 29.96 in 10.0 miles ESE 3.5 mph - N/A   Clear
1:53 PM 57.9°F 44.1°F 60% 29.94 in 10.0 miles Calm Calm - N/A   Clear
2:53 PM 55.9°F 44.1°F 64% 29.92 in 10.0 miles South 3.5 mph - N/A   Clear
3:53 PM 55.0°F 45.0°F 69% 29.90 in 10.0 miles South 4.6 mph - N/A   Clear
4:53 PM 52.0°F 45.0°F 77% 29.89 in 10.0 miles South 3.5 mph - N/A   Clear
5:53 PM 51.1°F 45.0°F 80% 29.88 in 10.0 miles Calm Calm - N/A   Clear
6:53 PM 48.9°F 44.1°F 83% 29.87 in 10.0 miles SSW 4.6 mph - N/A   Clear
7:53 PM 48.0°F 43.0°F 83% 29.87 in 10.0 miles Calm Calm - N/A   Clear
8:53 PM 48.9°F 43.0°F 80% 29.88 in 10.0 miles WSW 4.6 mph - N/A   Clear
9:53 PM 48.0°F 43.0°F 83% 29.88 in 10.0 miles SSW 5.8 mph - N/A   Scattered Clouds
10:53 PM 46.0°F 42.1°F 86% 29.89 in 10.0 miles North 4.6 mph - N/A   Clear
11:53 PM 45.0°F 42.1°F 90% 29.89 in 10.0 miles Calm Calm - N/A   Clear
Moon Phase
Nov. 06 Nov. 06 Nov. 13 Nov. 20 Nov. 28
Sunrise:06:49 AM (PST) Moon Rise:11:22 PM (PST)11/6
Sunset:04:32 PM (PST) Moon Set:12:40 PM (PST)11/6

Copyright © 2014 The Weather Underground, Inc.